Hourly Weather Roundup
Issued by NWS Central Illinois

Home | Current Version | Previous Version | Text Only | Print | Product List | Glossary On
Versions: 1 2 3 4 5 6 7 8 9 10 11 12 13 14 15 16 17 18 19 20 21 22 23 24 25 26 27 28 29 30 31 32 33 34 35 36 37 38 39 40 41 42 43 44 45 46 47 48 49 50
000
NZUS43 KILX 020110
HWRILX

AREA WEATHER ROUNDUP
NATIONAL WEATHER SERVICE, LINCOLN IL
800 PM CDT SUN MAY 01 2016


CITY           SKY/WX    TMP DP  RH WIND       PRES   REMARKS
BLOOMINGTON    LGT RAIN  53  53 100 N10       29.97R FOG
CHAMPAIGN      MOCLDY    58  56  93 N10       29.91R FOG
DANVILLE       LGT RAIN  58  56  95 N8        29.87R
DECATUR        CLOUDY    58  54  86 NW13      29.93R FOG
EFFINGHAM      CLOUDY    67  63  85 W18       29.91R
FLORA          MOCLDY    72  62  71 W12       29.89R
GALESBURG      CLOUDY    49  48  98 N8        29.99S
JACKSONVILLE   CLOUDY    56  52  86 NW12      29.97R
LACON          CLOUDY    49  48  95 N6        29.99R FOG
LAWRENCEVILLE  MOCLDY    73  60  63 W3        29.84F
LITCHFIELD     PTCLDY    57  53  86 NW13      29.95R
$$


CITY           SKY/WX    TMP DP  RH WIND       PRES   REMARKS
LINCOLN        CLOUDY    55  55  99 NW5       29.96R FOG
MACOMB         CLOUDY    50  50  99 N7        30.01R
MATTOON        MOCLDY    61  56  83 NW23G29   29.90R
MT CARMEL AP   NOT AVBL
OLNEY-NOBLE AP PTCLDY    70  63  78 W6        29.87S
PARIS          LGT RAIN  56  55  96 CALM      29.88R
PEORIA         LGT RAIN  52  49  89 NW8       29.98R FOG
PONTIAC        CLOUDY    51  51  97 N10       29.97R
RANTOUL        CLOUDY    57  56  94 N8        29.91R FOG
ROBINSON       LGT RAIN  68  63  83 CALM      29.86S
SPRINGFIELD    CLOUDY    57  54  89 NW10      29.96R FOG
TAYLORVILLE    CLOUDY    57  55  94 NW12      29.95R
$$

...REGIONAL REPORTS...


CITY           SKY/WX    TMP DP  RH WIND       PRES   REMARKS
CHICAGO O`HARE LGT RAIN  45  43  93 NE9       29.96S
KANKAKEE       CLOUDY    49  47  90 N9        29.95R THUNDER
MOLINE         LGT RAIN  50  47  89 NE6       29.99F
MOUNT STERLING CLOUDY    52  49  90 N12       29.99R
MOUNT VERNON   MOCLDY    64  57  77 W3        29.90R
PITTSFIELD     CLOUDY    57  53  86 NW7       30.00R
QUINCY         CLOUDY    52  49  89 NW14      30.00R
ROCKFORD       LGT RAIN  50  44  80 NE13      30.01R
$$


CITY           SKY/WX    TMP DP  RH WIND       PRES   REMARKS
BURLINGTON     CLOUDY    50  49  96 N6        30.01R
CEDAR RAPIDS   CLOUDY    48  47  96 N10       30.03R
DES MOINES     CLOUDY    50  44  80 NE6       30.08R
KIRKSVILLE     CLOUDY    49  46  90 NW8       30.04S
OTTUMWA        CLOUDY    48  47  96 N6        30.05R FOG
ST LOUIS       PTCLDY    64  44  48 NW9       29.96R
$$


CITY           SKY/WX    TMP DP  RH WIND       PRES   REMARKS
TERRE HAUTE    CLEAR     65  60  84 NW3       29.85R
EVANSVILLE     CLEAR     72  60  66 S8        29.86S
INDIANAPOLIS   TSTM      71  56  58 E5        29.80F
LAFAYETTE      LGT RAIN  57  55  93 N13       29.87R
MADISON        CLOUDY    51  41  68 NE10      30.03R
MILWAUKEE      DRZL/FOG  43  42  97 NE14      30.02S VSB 1/2
$$





USA.gov is the U.S. government's official web portal to all federal, state and local government web resources and services.